Location: Bratislava
(48.1500°N, 17.1170°E)
Time: 05:17:48
(UTC+02:00)

ISS - Visible Passes

Search period start: 17 April 2024 00:00
Search period end: 27 April 2024 00:00
Orbit: 412 x 419 km, 51.6° (Epoch: 17 April)

Date Brightness Start Highest point End Pass type
(mag) Time Alt. Az. Time Alt. Az. Time Alt. Az.
21 Apr -1.1 04:47:17 10° SSE 04:48:43 12° SE 04:50:10 10° ESE visible
23 Apr -2.2 04:44:35 10° SSW 04:47:24 27° SE 04:50:17 10° E visible
24 Apr -1.7 03:57:36 15° SSE 03:58:40 18° SE 04:01:00 10° E visible
25 Apr -1.0 03:10:32 11° ESE 03:10:32 11° ESE 03:11:01 10° ESE visible
25 Apr -3.5 04:43:24 14° SW 04:46:06 58° SSE 04:49:23 10° ENE visible
26 Apr -2.9 03:56:14 30° S 03:57:12 38° SSE 04:00:20 10° ENE visible
